Time,TemperatureF,DewpointF,PressureIn,WindDirection,WindDirectionDegrees,WindSpeedMPH,WindSpeedGustMPH,Humidity,HourlyPrecipIn,Conditions,Clouds,dailyrainin,SoftwareType,DateUTC
2013-05-20 00:05:00,49.3,48.2,30.17,SSE,157,1.0,3.0,96,0.00,,,0.00,Wunderground v.1.15,2013-05-20 04:05:00,
2013-05-20 00:15:00,49.3,48.2,30.17,SSW,198,1.0,1.0,96,0.00,,,0.00,Wunderground v.1.15,2013-05-20 04:15:00,
2013-05-20 00:20:00,49.3,48.2,30.17,SSE,151,2.0,2.0,96,0.00,,,0.00,Wunderground v.1.15,2013-05-20 04:20:00,
2013-05-20 00:30:00,49.4,48.3,30.16,ESE,120,1.0,1.0,96,0.00,,,0.00,Wunderground v.1.15,2013-05-20 04:30:00,
2013-05-20 00:35:00,49.5,48.4,30.16,SE,142,2.0,2.0,96,0.00,,,0.00,Wunderground v.1.15,2013-05-20 04:35:00,
2013-05-20 00:40:00,49.6,48.5,30.16,SSE,155,1.0,1.0,96,0.00,,,0.00,Wunderground v.1.15,2013-05-20 04:40:00,
2013-05-20 00:50:00,49.6,48.5,30.15,SSE,156,1.0,3.0,96,0.00,,,0.00,Wunderground v.1.15,2013-05-20 04:50:00,
2013-05-20 01:00:00,49.6,48.5,30.15,SSE,150,2.0,3.0,96,0.00,,,0.00,Wunderground v.1.15,2013-05-20 05:00:00,
2013-05-20 01:05:00,49.6,48.5,30.14,South,169,2.0,3.0,96,0.00,,,0.00,Wunderground v.1.15,2013-05-20 05:05:00,
2013-05-20 01:15:00,49.7,48.6,30.14,SSE,158,2.0,2.0,96,0.00,,,0.00,Wunderground v.1.15,2013-05-20 05:15:00,
2013-05-20 01:20:00,49.7,48.6,30.14,SSE,153,2.0,4.0,96,0.00,,,0.00,Wunderground v.1.15,2013-05-20 05:20:00,
2013-05-20 01:30:00,49.7,48.6,30.14,SSE,148,2.0,3.0,96,0.00,,,0.00,Wunderground v.1.15,2013-05-20 05:30:00,
2013-05-20 01:40:00,49.7,48.6,30.13,ESE,103,1.0,1.0,96,0.00,,,0.00,Wunderground v.1.15,2013-05-20 05:40:00,
2013-05-20 01:45:00,49.7,48.6,30.13,South,181,1.0,1.0,96,0.00,,,0.00,Wunderground v.1.15,2013-05-20 05:45:00,
2013-05-20 01:55:00,49.7,48.6,30.13,SSE,158,1.0,1.0,96,0.08,,,0.02,Wunderground v.1.15,2013-05-20 05:55:00,
2013-05-20 02:05:00,49.7,48.9,30.13,SE,128,1.0,2.0,97,0.06,,,0.03,Wunderground v.1.15,2013-05-20 06:05:00,
2013-05-20 02:10:00,49.8,49.0,30.12,ESE,113,1.0,1.0,97,0.06,,,0.03,Wunderground v.1.15,2013-05-20 06:10:00,
2013-05-20 02:20:00,49.8,49.0,30.12,ESE,106,1.0,1.0,97,0.07,,,0.04,Wunderground v.1.15,2013-05-20 06:20:00,
2013-05-20 02:25:00,49.9,49.1,30.12,SSE,152,1.0,1.0,97,0.05,,,0.04,Wunderground v.1.15,2013-05-20 06:25:00,
2013-05-20 02:35:00,49.9,49.1,30.11,ESE,111,1.0,1.0,97,0.13,,,0.06,Wunderground v.1.15,2013-05-20 06:35:00,
2013-05-20 02:40:00,49.9,49.1,30.11,East,101,1.0,1.0,97,0.14,,,0.07,Wunderground v.1.15,2013-05-20 06:40:00,
2013-05-20 02:50:00,49.9,49.1,30.10,East,96,0.0,1.0,97,0.12,,,0.09,Wunderground v.1.15,2013-05-20 06:50:00,
2013-05-20 03:00:00,49.9,48.8,30.09,East,92,1.0,1.0,96,0.22,,,0.12,Wunderground v.1.15,2013-05-20 07:00:00,
2013-05-20 03:10:00,49.9,49.1,30.09,SE,124,2.0,5.0,97,0.08,,,0.13,Wunderground v.1.15,2013-05-20 07:10:00,
2013-05-20 03:20:00,49.9,49.1,30.08,SSE,167,2.0,3.0,97,0.09,,,0.15,Wunderground v.1.15,2013-05-20 07:20:00,
2013-05-20 03:30:00,50.0,49.2,30.07,SSE,163,3.0,4.0,97,0.11,,,0.17,Wunderground v.1.15,2013-05-20 07:30:00,
2013-05-20 03:35:00,50.0,49.2,30.07,SSE,152,3.0,4.0,97,0.12,,,0.18,Wunderground v.1.15,2013-05-20 07:35:00,
2013-05-20 03:45:00,50.1,49.3,30.07,SE,129,2.0,3.0,97,0.12,,,0.20,Wunderground v.1.15,2013-05-20 07:45:00,
2013-05-20 03:55:00,50.1,49.3,30.06,ESE,122,2.0,3.0,97,0.09,,,0.21,Wunderground v.1.15,2013-05-20 07:55:00,
2013-05-20 04:00:00,50.2,49.4,30.06,SSW,197,1.0,1.0,97,0.06,,,0.22,Wunderground v.1.15,2013-05-20 08:00:00,
2013-05-20 04:10:00,50.4,49.6,30.05,SSE,153,1.0,3.0,97,0.09,,,0.23,Wunderground v.1.15,2013-05-20 08:10:00,
2013-05-20 04:15:00,50.4,49.6,30.05,SSE,148,1.0,3.0,97,0.15,,,0.25,Wunderground v.1.15,2013-05-20 08:15:00,
2013-05-20 04:25:00,50.6,49.8,30.05,SE,136,2.0,3.0,97,0.07,,,0.26,Wunderground v.1.15,2013-05-20 08:25:00,
2013-05-20 04:30:00,50.7,49.9,30.04,SSE,165,3.0,3.0,97,0.07,,,0.26,Wunderground v.1.15,2013-05-20 08:30:00,
2013-05-20 04:40:00,50.8,50.0,30.04,SE,131,3.0,3.0,97,0.04,,,0.26,Wunderground v.1.15,2013-05-20 08:40:00,
2013-05-20 04:45:00,51.0,50.2,30.04,SSE,154,2.0,3.0,97,0.00,,,0.26,Wunderground v.1.15,2013-05-20 08:45:00,
2013-05-20 04:55:00,51.3,50.5,30.04,South,174,4.0,4.0,97,0.00,,,0.26,Wunderground v.1.15,2013-05-20 08:55:00,
2013-05-20 05:00:00,51.5,50.7,30.03,South,183,4.0,4.0,97,0.00,,,0.26,Wunderground v.1.15,2013-05-20 09:00:00,
2013-05-20 05:10:00,51.8,51.0,30.03,SE,136,5.0,5.0,97,0.00,,,0.26,Wunderground v.1.15,2013-05-20 09:10:00,
2013-05-20 05:20:00,52.1,51.3,30.02,South,185,5.0,5.0,97,0.00,,,0.26,Wunderground v.1.15,2013-05-20 09:20:00,
2013-05-20 05:25:00,52.2,51.4,30.02,SSE,166,5.0,7.0,97,0.00,,,0.26,Wunderground v.1.15,2013-05-20 09:25:00,
2013-05-20 05:30:00,52.3,51.5,30.02,South,172,6.0,8.0,97,0.00,,,0.26,Wunderground v.1.15,2013-05-20 09:30:00,
2013-05-20 05:40:00,52.4,51.6,30.02,South,182,5.0,5.0,97,0.00,,,0.26,Wunderground v.1.15,2013-05-20 09:40:00,
2013-05-20 05:45:00,52.4,51.6,30.01,SSE,161,5.0,11.0,97,0.00,,,0.26,Wunderground v.1.15,2013-05-20 09:45:00,
2013-05-20 05:55:00,52.5,51.7,30.00,SSE,160,7.0,7.0,97,0.00,,,0.27,Wunderground v.1.15,2013-05-20 09:55:00,
2013-05-20 06:00:00,52.5,51.7,30.01,SSE,153,7.0,7.0,97,0.00,,,0.27,Wunderground v.1.15,2013-05-20 10:00:00,
2013-05-20 06:10:00,52.5,51.4,30.00,South,172,5.0,5.0,96,0.00,,,0.27,Wunderground v.1.15,2013-05-20 10:10:00,
2013-05-20 06:15:00,52.4,51.3,30.00,SSE,154,5.0,5.0,96,0.00,,,0.27,Wunderground v.1.15,2013-05-20 10:15:00,
2013-05-20 06:25:00,52.4,51.3,30.00,SE,132,4.0,4.0,96,0.00,,,0.27,Wunderground v.1.15,2013-05-20 10:25:00,
2013-05-20 06:35:00,52.3,51.2,30.01,South,174,4.0,5.0,96,0.00,,,0.27,Wunderground v.1.15,2013-05-20 10:35:00,
2013-05-20 06:40:00,52.3,51.2,30.01,SSE,165,4.0,6.0,96,0.00,,,0.27,Wunderground v.1.15,2013-05-20 10:40:00,
2013-05-20 06:50:00,52.3,51.2,30.00,SSE,155,4.0,4.0,96,0.00,,,0.27,Wunderground v.1.15,2013-05-20 10:50:00,
2013-05-20 07:00:00,52.3,51.5,30.00,SSE,166,3.0,5.0,97,0.00,,,0.28,Wunderground v.1.15,2013-05-20 11:00:00,
2013-05-20 07:10:00,52.3,51.5,30.00,SE,124,3.0,3.0,97,0.07,,,0.29,Wunderground v.1.15,2013-05-20 11:10:00,
2013-05-20 07:15:00,52.3,51.5,30.01,SSE,158,3.0,3.0,97,0.04,,,0.29,Wunderground v.1.15,2013-05-20 11:15:00,
2013-05-20 07:20:00,52.3,51.5,29.99,SSW,210,3.0,5.0,97,0.00,,,0.29,Wunderground v.1.15,2013-05-20 11:20:00,
2013-05-20 07:30:00,52.2,51.4,29.99,East,96,3.0,4.0,97,0.23,,,0.33,Wunderground v.1.15,2013-05-20 11:30:00,
2013-05-20 07:35:00,52.3,51.5,29.99,SE,134,3.0,4.0,97,0.15,,,0.35,Wunderground v.1.15,2013-05-20 11:35:00,
2013-05-20 07:45:00,52.4,51.6,29.99,SSE,160,2.0,5.0,97,0.09,,,0.36,Wunderground v.1.15,2013-05-20 11:45:00,
2013-05-20 07:50:00,52.4,51.6,29.99,South,174,2.0,2.0,97,0.08,,,0.37,Wunderground v.1.15,2013-05-20 11:50:00,
2013-05-20 08:00:00,52.5,51.7,29.99,ESE,115,2.0,2.0,97,0.05,,,0.37,Wunderground v.1.15,2013-05-20 12:00:00,
2013-05-20 08:05:00,52.5,51.7,29.99,SE,142,1.0,3.0,97,0.04,,,0.37,Wunderground v.1.15,2013-05-20 12:05:00,
2013-05-20 08:15:00,52.8,52.0,29.98,ESE,113,2.0,3.0,97,0.00,,,0.37,Wunderground v.1.15,2013-05-20 12:15:00,
2013-05-20 08:25:00,52.9,52.1,29.98,SSE,150,2.0,3.0,97,0.00,,,0.37,Wunderground v.1.15,2013-05-20 12:25:00,
2013-05-20 08:30:00,53.0,51.9,29.98,South,171,2.0,4.0,96,0.00,,,0.37,Wunderground v.1.15,2013-05-20 12:30:00,
2013-05-20 08:40:00,53.0,51.9,29.98,SE,139,2.0,4.0,96,0.00,,,0.37,Wunderground v.1.15,2013-05-20 12:40:00,
2013-05-20 08:45:00,53.0,51.9,29.98,SE,129,2.0,4.0,96,0.00,,,0.37,Wunderground v.1.15,2013-05-20 12:45:00,
2013-05-20 08:50:00,53.0,51.9,29.97,SE,139,2.0,3.0,96,0.00,,,0.37,Wunderground v.1.15,2013-05-20 12:50:00,
2013-05-20 09:00:00,52.9,51.8,29.97,SSE,155,2.0,3.0,96,0.00,,,0.37,Wunderground v.1.15,2013-05-20 13:00:00,
2013-05-20 09:05:00,52.9,51.8,29.97,South,174,2.0,3.0,96,0.22,,,0.39,Wunderground v.1.15,2013-05-20 13:05:00,
2013-05-20 09:15:00,52.9,52.1,29.97,SSE,160,1.0,3.0,97,0.06,,,0.40,Wunderground v.1.15,2013-05-20 13:15:00,
2013-05-20 09:20:00,53.0,52.2,29.97,SSW,202,1.0,1.0,97,0.11,,,0.41,Wunderground v.1.15,2013-05-20 13:20:00,
2013-05-20 09:30:00,53.2,52.4,29.97,ESE,109,1.0,1.0,97,0.05,,,0.41,Wunderground v.1.15,2013-05-20 13:30:00,
2013-05-20 09:35:00,53.3,52.5,29.97,SE,142,1.0,3.0,97,0.04,,,0.41,Wunderground v.1.15,2013-05-20 13:35:00,
2013-05-20 09:45:00,53.7,52.9,29.97,WSW,243,1.0,3.0,97,0.00,,,0.41,Wunderground v.1.15,2013-05-20 13:45:00,
2013-05-20 09:55:00,54.0,52.9,29.96,SSW,206,1.0,3.0,96,0.00,,,0.41,Wunderground v.1.15,2013-05-20 13:55:00,
2013-05-20 10:05:00,54.2,53.4,29.96,West,266,1.0,4.0,97,0.00,,,0.42,Wunderground v.1.15,2013-05-20 14:05:00,
2013-05-20 10:10:00,54.3,53.2,29.96,SW,224,2.0,7.0,96,0.00,,,0.42,Wunderground v.1.15,2013-05-20 14:10:00,
2013-05-20 10:20:00,54.5,53.4,29.97,WSW,257,3.0,3.0,96,0.00,,,0.42,Wunderground v.1.15,2013-05-20 14:20:00,
2013-05-20 10:25:00,54.3,53.2,29.96,SSW,204,3.0,3.0,96,0.00,,,0.43,Wunderground v.1.15,2013-05-20 14:25:00,
2013-05-20 10:35:00,54.3,53.2,29.96,WSW,250,2.0,3.0,96,0.13,,,0.45,Wunderground v.1.15,2013-05-20 14:35:00,
2013-05-20 10:45:00,54.4,53.3,29.96,SSW,213,2.0,3.0,96,0.07,,,0.46,Wunderground v.1.15,2013-05-20 14:45:00,
2013-05-20 10:55:00,54.6,53.8,29.95,WSW,240,2.0,3.0,97,0.00,,,0.46,Wunderground v.1.15,2013-05-20 14:55:00,
2013-05-20 11:05:00,54.7,53.6,29.95,SW,230,1.0,3.0,96,0.00,,,0.46,Wunderground v.1.15,2013-05-20 15:05:00,
2013-05-20 11:15:00,55.0,53.9,29.95,SW,234,1.0,3.0,96,0.00,,,0.46,Wunderground v.1.15,2013-05-20 15:15:00,
2013-05-20 11:20:00,55.1,54.0,29.95,WSW,238,1.0,3.0,96,0.00,,,0.46,Wunderground v.1.15,2013-05-20 15:20:00,
2013-05-20 11:25:00,55.7,54.6,29.94,SW,215,2.0,3.0,96,0.00,,,0.46,Wunderground v.1.15,2013-05-20 15:25:00,
2013-05-20 11:35:00,56.5,55.1,29.94,SW,214,2.0,4.0,95,0.00,,,0.46,Wunderground v.1.15,2013-05-20 15:35:00,
2013-05-20 11:40:00,57.0,55.6,29.94,SW,232,2.0,3.0,95,0.00,,,0.46,Wunderground v.1.15,2013-05-20 15:40:00,
2013-05-20 11:50:00,57.4,55.1,29.93,SW,224,3.0,3.0,92,0.00,,,0.46,Wunderground v.1.15,2013-05-20 15:50:00,
2013-05-20 11:55:00,57.6,55.6,29.93,WSW,252,3.0,3.0,93,0.00,,,0.46,Wunderground v.1.15,2013-05-20 15:55:00,
2013-05-20 12:05:00,58.5,56.5,29.92,WSW,240,2.0,3.0,93,0.00,,,0.46,Wunderground v.1.15,2013-05-20 16:05:00,
2013-05-20 12:15:00,59.1,56.8,29.92,SW,236,2.0,5.0,92,0.00,,,0.46,Wunderground v.1.15,2013-05-20 16:15:00,
2013-05-20 12:20:00,59.5,57.2,29.92,WSW,251,2.0,2.0,92,0.00,,,0.46,Wunderground v.1.15,2013-05-20 16:20:00,
2013-05-20 12:30:00,60.2,56.9,29.92,West,264,1.0,1.0,89,0.00,,,0.46,Wunderground v.1.15,2013-05-20 16:30:00,
2013-05-20 12:35:00,60.3,56.7,29.92,WSW,239,2.0,3.0,88,0.00,,,0.46,Wunderground v.1.15,2013-05-20 16:35:00,
2013-05-20 12:45:00,61.2,57.9,29.92,West,260,3.0,5.0,89,0.00,,,0.46,Wunderground v.1.15,2013-05-20 16:45:00,
2013-05-20 12:50:00,61.8,58.2,29.92,WSW,250,3.0,3.0,88,0.00,,,0.46,Wunderground v.1.15,2013-05-20 16:50:00,
2013-05-20 13:00:00,63.0,59.1,29.92,SSW,196,2.0,3.0,87,0.00,,,0.46,Wunderground v.1.15,2013-05-20 17:00:00,
2013-05-20 13:05:00,63.3,58.7,29.91,West,271,1.0,3.0,85,0.00,,,0.46,Wunderground v.1.15,2013-05-20 17:05:00,
2013-05-20 13:15:00,64.3,59.4,29.90,NW,323,1.0,3.0,84,0.00,,,0.46,Wunderground v.1.15,2013-05-20 17:15:00,
2013-05-20 13:25:00,66.8,62.1,29.90,WSW,251,2.0,3.0,85,0.00,,,0.46,Wunderground v.1.15,2013-05-20 17:25:00,
2013-05-20 13:35:00,66.0,59.3,29.90,East,91,2.0,3.0,79,0.00,,,0.46,Wunderground v.1.15,2013-05-20 17:35:00,
2013-05-20 13:40:00,66.0,60.0,29.89,South,184,1.0,3.0,81,0.00,,,0.46,Wunderground v.1.15,2013-05-20 17:40:00,
2013-05-20 13:50:00,67.0,60.3,29.90,South,169,2.0,5.0,79,0.00,,,0.46,Wunderground v.1.15,2013-05-20 17:50:00,
2013-05-20 13:55:00,66.8,60.4,29.90,South,172,2.0,5.0,80,0.00,,,0.46,Wunderground v.1.15,2013-05-20 17:55:00,
2013-05-20 14:05:00,66.3,59.9,29.90,SSE,158,2.0,3.0,80,0.00,,,0.46,Wunderground v.1.15,2013-05-20 18:05:00,
2013-05-20 14:15:00,66.2,60.2,29.90,SSE,161,2.0,3.0,81,0.00,,,0.46,Wunderground v.1.15,2013-05-20 18:15:00,
2013-05-20 14:25:00,67.4,61.0,29.90,ESE,119,1.0,3.0,80,0.00,,,0.46,Wunderground v.1.15,2013-05-20 18:25:00,
2013-05-20 14:30:00,68.1,61.3,29.90,SE,136,2.0,3.0,79,0.00,,,0.46,Wunderground v.1.15,2013-05-20 18:30:00,
2013-05-20 14:40:00,69.0,61.1,29.90,West,278,1.0,1.0,76,0.00,,,0.46,Wunderground v.1.15,2013-05-20 18:40:00,
2013-05-20 14:45:00,69.3,61.4,29.89,SW,223,1.0,3.0,76,0.00,,,0.46,Wunderground v.1.15,2013-05-20 18:45:00,
2013-05-20 14:55:00,69.7,61.8,29.89,ESE,112,1.0,3.0,76,0.00,,,0.46,Wunderground v.1.15,2013-05-20 18:55:00,
2013-05-20 15:00:00,69.9,61.6,29.89,SSE,155,1.0,1.0,75,0.00,,,0.46,Wunderground v.1.15,2013-05-20 19:00:00,
2013-05-20 15:10:00,69.9,61.6,29.89,East,86,1.0,3.0,75,0.00,,,0.46,Wunderground v.1.15,2013-05-20 19:10:00,
2013-05-20 15:15:00,69.5,60.8,29.89,South,188,2.0,3.0,74,0.00,,,0.46,Wunderground v.1.15,2013-05-20 19:15:00,
2013-05-20 15:20:00,69.6,61.7,29.89,ESE,104,1.0,3.0,76,0.00,,,0.46,Wunderground v.1.15,2013-05-20 19:20:00,
2013-05-20 15:30:00,69.3,63.2,29.89,East,82,2.0,2.0,81,0.00,,,0.46,Wunderground v.1.15,2013-05-20 19:30:00,
2013-05-20 15:40:00,70.6,61.1,29.88,NNE,25,1.0,3.0,72,0.00,,,0.46,Wunderground v.1.15,2013-05-20 19:40:00,
2013-05-20 15:45:00,71.1,60.8,29.88,ENE,72,1.0,3.0,70,0.00,,,0.46,Wunderground v.1.15,2013-05-20 19:45:00,
2013-05-20 15:55:00,71.4,61.1,29.89,NW,304,1.0,3.0,70,0.00,,,0.46,Wunderground v.1.15,2013-05-20 19:55:00,
2013-05-20 16:05:00,72.6,60.2,29.88,SSW,195,1.0,3.0,65,0.00,,,0.46,Wunderground v.1.15,2013-05-20 20:05:00,
2013-05-20 16:10:00,73.4,60.9,29.87,SSW,207,1.0,3.0,65,0.00,,,0.46,Wunderground v.1.15,2013-05-20 20:10:00,
2013-05-20 16:20:00,72.8,61.2,29.87,WSW,257,4.0,4.0,67,0.00,,,0.46,Wunderground v.1.15,2013-05-20 20:20:00,
2013-05-20 16:25:00,72.7,58.9,29.87,SW,219,3.0,4.0,62,0.00,,,0.46,Wunderground v.1.15,2013-05-20 20:25:00,
2013-05-20 16:35:00,72.8,59.9,29.87,ENE,60,1.0,3.0,64,0.00,,,0.46,Wunderground v.1.15,2013-05-20 20:35:00,
2013-05-20 16:45:00,73.1,59.8,29.87,West,271,1.0,3.0,63,0.00,,,0.46,Wunderground v.1.15,2013-05-20 20:45:00,
2013-05-20 16:55:00,73.1,59.3,29.87,SSW,210,0.0,3.0,62,0.00,,,0.46,Wunderground v.1.15,2013-05-20 20:55:00,
2013-05-20 17:05:00,72.3,59.4,29.88,West,262,1.0,3.0,64,0.00,,,0.46,Wunderground v.1.15,2013-05-20 21:05:00,
2013-05-20 17:15:00,72.9,58.7,29.88,West,266,1.0,3.0,61,0.00,,,0.46,Wunderground v.1.15,2013-05-20 21:15:00,
2013-05-20 17:25:00,73.4,58.7,29.88,WSW,252,2.0,6.0,60,0.00,,,0.46,Wunderground v.1.15,2013-05-20 21:25:00,
2013-05-20 17:30:00,73.4,58.7,29.88,NW,304,2.0,3.0,60,0.00,,,0.46,Wunderground v.1.15,2013-05-20 21:30:00,
2013-05-20 17:40:00,73.4,59.1,29.88,NNW,342,1.0,1.0,61,0.00,,,0.46,Wunderground v.1.15,2013-05-20 21:40:00,
2013-05-20 17:50:00,72.8,58.1,29.88,NNE,30,2.0,2.0,60,0.00,,,0.46,Wunderground v.1.15,2013-05-20 21:50:00,
2013-05-20 18:00:00,73.1,57.4,29.88,WNW,298,1.0,1.0,58,0.00,,,0.46,Wunderground v.1.15,2013-05-20 22:00:00,
2013-05-20 18:05:00,73.0,57.3,29.88,West,259,1.0,3.0,58,0.00,,,0.46,Wunderground v.1.15,2013-05-20 22:05:00,
2013-05-20 18:15:00,72.6,56.5,29.89,SSW,213,1.0,3.0,57,0.00,,,0.46,Wunderground v.1.15,2013-05-20 22:15:00,
2013-05-20 18:20:00,72.5,56.4,29.89,SSE,155,1.0,1.0,57,0.00,,,0.46,Wunderground v.1.15,2013-05-20 22:20:00,
2013-05-20 18:30:00,71.5,55.9,29.89,NNW,335,1.0,1.0,58,0.00,,,0.46,Wunderground v.1.15,2013-05-20 22:30:00,
2013-05-20 18:35:00,70.6,56.5,29.89,NE,49,0.0,3.0,61,0.00,,,0.46,Wunderground v.1.15,2013-05-20 22:35:00,
2013-05-20 18:45:00,70.0,56.8,29.89,ESE,105,0.0,3.0,63,0.00,,,0.46,Wunderground v.1.15,2013-05-20 22:45:00,
2013-05-20 18:50:00,70.1,58.6,29.89,ESE,104,0.0,3.0,67,0.00,,,0.46,Wunderground v.1.15,2013-05-20 22:50:00,
2013-05-20 19:00:00,69.5,59.3,29.90,ESE,104,0.0,3.0,70,0.00,,,0.46,Wunderground v.1.15,2013-05-20 23:00:00,
2013-05-20 19:05:00,69.0,58.8,29.90,ESE,104,0.0,3.0,70,0.00,,,0.46,Wunderground v.1.15,2013-05-20 23:05:00,
2013-05-20 19:15:00,68.8,56.6,29.90,ESE,103,0.0,3.0,65,0.00,,,0.46,Wunderground v.1.15,2013-05-20 23:15:00,
2013-05-20 19:25:00,68.1,59.5,29.89,East,85,0.0,3.0,74,0.00,,,0.46,Wunderground v.1.15,2013-05-20 23:25:00,
2013-05-20 19:30:00,67.5,58.2,29.90,East,88,0.0,3.0,72,0.00,,,0.46,Wunderground v.1.15,2013-05-20 23:30:00,
2013-05-20 19:40:00,66.6,57.7,29.90,East,87,0.0,3.0,73,0.00,,,0.46,Wunderground v.1.15,2013-05-20 23:40:00,
2013-05-20 19:45:00,65.7,58.3,29.90,East,87,0.0,3.0,77,0.00,,,0.46,Wunderground v.1.15,2013-05-20 23:45:00,
2013-05-20 19:55:00,63.4,57.8,29.89,East,97,0.0,3.0,82,0.00,,,0.46,Wunderground v.1.15,2013-05-20 23:55:00,
2013-05-20 20:05:00,62.3,57.7,29.89,East,97,0.0,3.0,85,0.00,,,0.46,Wunderground v.1.15,2013-05-21 00:05:00,
2013-05-20 20:10:00,61.6,57.0,29.89,East,97,0.0,3.0,85,0.00,,,0.46,Wunderground v.1.15,2013-05-21 00:10:00,
2013-05-20 20:20:00,60.7,56.8,29.90,ESE,120,0.0,3.0,87,0.00,,,0.46,Wunderground v.1.15,2013-05-21 00:20:00,
2013-05-20 20:30:00,61.2,57.3,29.90,ESE,112,1.0,3.0,87,0.00,,,0.46,Wunderground v.1.15,2013-05-21 00:30:00,
2013-05-20 20:35:00,61.4,58.1,29.90,SE,143,1.0,3.0,89,0.00,,,0.46,Wunderground v.1.15,2013-05-21 00:35:00,
2013-05-20 20:45:00,61.2,57.9,29.90,East,94,1.0,3.0,89,0.00,,,0.46,Wunderground v.1.15,2013-05-21 00:45:00,
2013-05-20 20:55:00,60.8,58.2,29.91,WSW,250,0.0,3.0,91,0.00,,,0.46,Wunderground v.1.15,2013-05-21 00:55:00,
2013-05-20 21:00:00,60.4,57.5,29.91,East,94,1.0,1.0,90,0.00,,,0.46,Wunderground v.1.15,2013-05-21 01:00:00,
2013-05-20 21:10:00,59.6,57.3,29.91,SSE,165,1.0,1.0,92,0.00,,,0.46,Wunderground v.1.15,2013-05-21 01:10:00,
2013-05-20 21:20:00,59.5,57.5,29.91,SSE,165,0.0,3.0,93,0.00,,,0.46,Wunderground v.1.15,2013-05-21 01:20:00,
2013-05-20 21:25:00,59.1,57.1,29.91,SSE,165,0.0,3.0,93,0.00,,,0.46,Wunderground v.1.15,2013-05-21 01:25:00,
2013-05-20 21:35:00,58.7,57.0,29.91,SSE,165,0.0,3.0,94,0.00,,,0.46,Wunderground v.1.15,2013-05-21 01:35:00,
2013-05-20 21:45:00,58.4,57.0,29.91,North,8,1.0,3.0,95,0.00,,,0.46,Wunderground v.1.15,2013-05-21 01:45:00,
2013-05-20 21:50:00,58.2,56.8,29.90,North,4,1.0,1.0,95,0.00,,,0.46,Wunderground v.1.15,2013-05-21 01:50:00,
2013-05-20 22:00:00,57.4,55.7,29.91,North,4,0.0,3.0,94,0.00,,,0.46,Wunderground v.1.15,2013-05-21 02:00:00,
2013-05-20 22:05:00,57.3,55.9,29.91,North,4,0.0,3.0,95,0.00,,,0.46,Wunderground v.1.15,2013-05-21 02:05:00,
2013-05-20 22:15:00,56.8,55.4,29.91,North,4,0.0,3.0,95,0.00,,,0.46,Wunderground v.1.15,2013-05-21 02:15:00,
2013-05-20 22:20:00,57.5,56.4,29.92,ESE,118,1.0,5.0,96,0.00,,,0.46,Wunderground v.1.15,2013-05-21 02:20:00,
2013-05-20 22:30:00,57.9,56.8,29.92,ENE,60,3.0,3.0,96,0.00,,,0.46,Wunderground v.1.15,2013-05-21 02:30:00,
2013-05-20 22:40:00,57.9,56.5,29.92,NE,40,3.0,3.0,95,0.00,,,0.46,Wunderground v.1.15,2013-05-21 02:40:00,
2013-05-20 22:50:00,57.8,56.7,29.92,SE,124,3.0,3.0,96,0.00,,,0.46,Wunderground v.1.15,2013-05-21 02:50:00,
2013-05-20 22:55:00,57.8,56.7,29.92,SE,134,3.0,3.0,96,0.00,,,0.46,Wunderground v.1.15,2013-05-21 02:55:00,
2013-05-20 23:05:00,57.6,56.5,29.93,ESE,120,2.0,3.0,96,0.00,,,0.46,Wunderground v.1.15,2013-05-21 03:05:00,
2013-05-20 23:10:00,57.6,56.5,29.93,ESE,115,3.0,4.0,96,0.00,,,0.46,Wunderground v.1.15,2013-05-21 03:10:00,
2013-05-20 23:15:00,57.5,56.4,29.93,ESE,117,3.0,4.0,96,0.00,,,0.46,Wunderground v.1.15,2013-05-21 03:15:00,
2013-05-20 23:25:00,57.4,56.3,29.94,East,99,3.0,3.0,96,0.00,,,0.46,Wunderground v.1.15,2013-05-21 03:25:00,
2013-05-20 23:30:00,57.4,56.3,29.94,ESE,119,3.0,3.0,96,0.00,,,0.46,Wunderground v.1.15,2013-05-21 03:30:00,
2013-05-20 23:40:00,57.4,56.3,29.94,SSE,155,2.0,2.0,96,0.00,,,0.46,Wunderground v.1.15,2013-05-21 03:40:00,
2013-05-20 23:45:00,57.4,56.3,29.95,SE,134,2.0,3.0,96,0.00,,,0.46,Wunderground v.1.15,2013-05-21 03:45:00,
2013-05-20 23:55:00,57.3,56.2,29.94,East,101,1.0,3.0,96,0.00,,,0.46,Wunderground v.1.15,2013-05-21 03:55:00,